{"data":{"norad_id":62057,"epoch":"2026-05-25T03:20:37.933152Z","epoch_age_seconds":73069,"freshness":"FRESH","line1":"1 62057U 24217A   26145.13932793  .00136929  00000+0  11146-2 0  9995","line2":"2 62057  53.1573  54.1820 0000865  96.0258 264.0859 15.69750507 87188","mean_motion":15.69750507,"eccentricity":8.65e-5,"inclination_deg":53.1573,"raan_deg":54.182,"arg_perigee_deg":96.0258,"mean_anomaly_deg":264.0859,"bstar":0.0011146,"rev_number":8718,"period_min":91.734322975441,"perigee_km":359.02802219575,"apogee_km":360.19365257162,"semimajor_km":6737.7478373837,"source":"CELESTRAK","updated_at":"2026-05-25T13:38:19.529327Z"}}